Regional Weather Roundup
Issued by NWS

Current Version | Previous Version | Text Only | Print | Product List | Glossary On
Versions: 1 2 3 4 5 6 7 8 9 10 11 12 13 14 15 16 17 18 19 20 21 22 23 24 25 26 27 28 29 30 31 32 33 34 35 36 37 38 39 40 41 42 43 44 45 46 47 48 49 50
000
ASUS43 KTOP 030208
RWRKS

WEATHER ROUNDUP FOR KANSAS
NATIONAL WEATHER SERVICE GOODLAND KS
900 PM CDT TUE SEP 02 2014

NOTE:  "FAIR" INDICATES FEW OR NO CLOUDS BELOW 12,000 FEET WITH NO
SIGNIFICANT WEATHER AND/OR OBSTRUCTIONS TO VISIBILITY.

KSZ001>006-013>018-027>032-041>047-030300-
NORTHWEST KANSAS

CITY           SKY/WX    TMP DP  RH WIND       PRES   REMARKS
GOODLAND       CLEAR     73  59  61 S15       29.95R
HAYS           CLEAR     75  64  69 SE9       29.92R
HILL CITY      CLEAR     74  66  76 E5        29.92R
RUSSELL        CLEAR     74  68  81 SE6       29.91R
$$

KSZ061>065-074>080-084>089-030300-
SOUTHWEST KANSAS

CITY           SKY/WX    TMP DP  RH WIND       PRES   REMARKS
DODGE CITY     CLEAR     75  67  76 SE6       29.94R
ELKHART          N/A     73  63  71 SE6         N/A
GARDEN CITY    CLEAR     75  65  70 SE5       29.94R
GREAT BEND     MOCLDY    75  68  78 SE8       29.92R
LIBERAL        CLEAR     81  66  61 E12       29.94R
PRATT          CLOUDY    79  68  69 SE8       29.94R
$$

KSZ066>073-081>083-090>101-030300-
SOUTHEAST KANSAS

CITY           SKY/WX    TMP DP  RH WIND       PRES   REMARKS
CHANUTE        CLEAR     74  68  81 SE6       29.97R
COFFEYVILLE    PTCLDY    75  70  84 S7        29.96R
HUTCHINSON     MOCLDY    77  68  73 SE6       29.92R
MEDICINE LODGE   N/A     79  72  79 E8        29.90R
NEWTON         CLEAR     73  63  68 SE6       29.97R
PARSONS        CLEAR     74  70  87 SE3       29.97R
WICHITA INTL   MOCLDY    79  69  71 SE9       29.92R
WICHITA JABRA  PTCLDY    77  69  76 SE5       29.93R
WICHITA MCCONL CLEAR     78  73  82 SE8       29.94R
WINFIELD       CLOUDY    78  70  76 SE10      29.94R
$$

KSZ007>012-019>026-033>040-048>060-102>105-030300-
NORTHEAST KANSAS

CITY           SKY/WX    TMP DP  RH WIND       PRES   REMARKS
CONCORDIA      CLEAR     71  67  87 SE7       29.92S
EMPORIA        CLEAR     75  69  81 SE7       29.95R
LAWRENCE       CLEAR     70  67  90 E6        29.96R
MANHATTAN      CLEAR     77  68  73 E3        29.92R
OLATHE IND     CLEAR     73  67  81 SE5       29.98R
OLATHE EXE     CLEAR     73  68  84 CALM      29.97R
SALINA         CLEAR     78  68  71 SE7       29.92R
TOPEKA BILLARD CLEAR     74  69  85 E3        29.95R
TOPEKA FORBES  CLEAR     73  69  87 E5        29.95R
$$


USA.gov is the U.S. government's official web portal to all federal, state and local government web resources and services.